Regional Weather Roundup
Issued by NWS

Home | Current Version | Previous Version | Graphics & Text | Print | Product List | Glossary On
Versions: 1 2 3 4 5 6 7 8 9 10 11 12 13 14 15 16 17 18 19 20 21 22 23 24 25 26 27 28 29 30 31 32 33 34 35 36 37 38 39 40 41 42 43 44 45 46 47 48 49 50
000
ASUS45 KABQ 231501
RWRNM
NEW MEXICO REGIONAL WEATHER ROUNDUP
NATIONAL WEATHER SERVICE ALBUQUERQUE NM
800 AM MST MON JAN 23 2017

NOTE: "FAIR" MEANS FEW OR NO CLOUDS BELOW 12,000 FEET AGL WITH NO
       SIGNIFICANT WEATHER OR OBSTRUCTIONS TO VISION.

      THIS PRODUCT IS RELEASED AS TWO VERSIONS.  ONE VERSION NEAR
      THE TOP OF THE HOUR CONTAINING PRELIMINARY DATA FROM ALBUQUERQUE
      AND OTHER STATIONS.  A FINAL VERSION WITH ADDITIONAL DATA IS
      ISSUED ABOUT 10 MINUTES AFTER THE HOUR.

NMZ501-503-504-510>518-231600-
NORTHWEST PLATEAU/NORTHCENTRAL MOUNTAINS

CITY           SKY/WX    TMP DP  RH WIND       PRES   REMARKS
FARMINGTON     FAIR      28  24  85 E9        29.88F WCI  19
LOS ALAMOS     CLOUDY    33  26  75 S14       29.94S WCI  23
SANTA FE       FAIR      30  27  88 S5        29.95F WCI  25
TAOS           CLOUDY    30  19  64 NE6       29.95S WCI  24
ANGEL FIRE     MIX PCPN  27  25  93 CALM      29.93R

$$
NMZ402-403-502-505>509-231600-
WESTCENTRAL MOUNTAINS/SOUTHWEST MOUNTAINS

CITY           SKY/WX    TMP DP  RH WIND       PRES   REMARKS
GALLUP         FAIR      28  21  75 SW10      29.91F WCI  19
GRANTS         FAIR      34  25  68 SE5       29.96S WCI  30
SILVER CITY    FAIR      31  28  88 N7        30.04F WCI  25

$$
NMZ407-409-411-412-231600-
SOUTHERN DESERTS

CITY           SKY/WX    TMP DP  RH WIND       PRES   REMARKS
DEMING         FAIR      33  29  85 CALM      30.05S
LAS CRUCES     FAIR      37  31  79 CALM      30.06S
ALAMOGORDO     FAIR      45  28  53 S15       30.04F
T OR C         FAIR      36  28  73 W5        30.01S WCI  32

$$
NMZ519>523-231600-
CENTRAL VALLEYS/CENTRAL HIGHLANDS

CITY           SKY/WX    TMP DP  RH WIND       PRES   REMARKS
ALBUQUERQUE    FAIR      32  28  85 SE9       29.97F WCI  24
MORIARTY ARPT  FAIR      29  25  86 SE5       29.98S WCI  24
CLINES CORNERS MOCLDY    34  26  72 SW21      29.96F WCI  22
BELEN          FAIR      33  29  87 S8        29.97F WCI  26
SOCORRO        FAIR      33  28  80 S6        29.98F WCI  28

$$
NMZ524>526-539-540-231600-
SOUTHCENTRAL MOUNTAINS

CITY           SKY/WX    TMP DP  RH WIND       PRES   REMARKS
RUIDOSO        NOT AVBL

$$
NMZ527>531-231600-
NORTHEAST HIGHLANDS/NORTHEAST PLAINS

CITY           SKY/WX    TMP DP  RH WIND       PRES   REMARKS
LAS VEGAS      FAIR      37  24  59 SW18      29.90S WCI  27
RATON          FAIR      34  22  61 S7        29.83S WCI  28
CLAYTON        FAIR      41  30  65 W16       29.76S

$$
NMZ532>537-231600-
EASTCENTRAL PLAINS

CITY           SKY/WX    TMP DP  RH WIND       PRES   REMARKS
TUCUMCARI      FAIR      45  30  55 SW16      29.87R
CANNON AFB     FAIR      37  27  65 SW8       29.90R WCI  31
CLOVIS AIRPORT FAIR      39  25  56 W13       29.89R WCI  32

$$
NMZ028-029-538-231600-
SOUTHEAST PLAINS

CITY           SKY/WX    TMP DP  RH WIND       PRES   REMARKS
ROSWELL        FAIR      35  26  69 CALM      29.92R
ARTESIA        FAIR      50  32  50 W5        29.95R
CARLSBAD       FAIR      42  28  57 CALM      29.94S
HOBBS          SUNNY     39  28  65 SW5       29.96R


$$




USA.gov is the U.S. government's official web portal to all federal, state and local government web resources and services.